Regional Weather Roundup
Issued by NWS Little Rock, AR

Home | Current Version | Previous Version | Text Only | Print | Product List | Glossary Off
Versions: 1 2 3 4 5 6 7 8 9 10 11 12 13 14 15 16 17 18 19 20 21 22 23 24 25 26 27 28 29 30 31 32 33 34 35 36 37 38 39 40 41 42 43 44 45 46 47 48 49 50

224
ASUS44 KLZK 112105
RWRLZK

WEATHER ROUNDUP FOR ARKANSAS
NATIONAL WEATHER SERVICE LITTLE ROCK AR
300 PM CST THU FEB 11 2016

NOTE: "FAIR" INDICATES FEW OR NO CLOUDS BELOW 12,000 FEET WITH NO
SIGNIFICANT WEATHER AND/OR OBSTRUCTIONS TO VISIBILITY.

ARZ001-003-010-029-112200-
NORTHWEST ARKANSAS

CITY           SKY/WX    TMP DP  RH WIND       PRES   REMARKS
FAYETTEVILLE   SUNNY     57  28  33 VRB3      30.11F
FORT SMITH     SUNNY     63  25  23 SE6       30.10F
HARRISON       SUNNY     49  22  34 S7        30.15S
BENTONVILLE    SUNNY     54  21  28 CALM      30.15S
ROGERS         SUNNY     51  23  33 SE3       30.14S
SILOAM SPGS    SUNNY     55  27  33 N5        30.13F
HIGHFILL       SUNNY     54  26  34 CALM      30.12F
SPRINGDALE     SUNNY     54  25  32 N5        30.14F
$$

ARZ004-005-016-112200-
NORTH CENTRAL ARKANSAS

CITY           SKY/WX    TMP DP  RH WIND       PRES   REMARKS
BATESVILLE     MOSUNNY   46  19  34 NE8       30.20S
FLIPPIN        SUNNY     48  18  29 E6        30.15S
MTN HOME       SUNNY     47  17  30 E7        30.15F
$$

ARZ040-041-112200-
WEST CENTRAL ARKANSAS

CITY           SKY/WX    TMP DP  RH WIND       PRES   REMARKS
MENA           SUNNY     68  34  28 NE3       30.07F
MOUNT IDA      SUNNY     61  32  33 E7        30.08F
$$

ARZ009-017-025-026-028-112200-
NORTHEAST ARKANSAS

CITY           SKY/WX    TMP DP  RH WIND       PRES   REMARKS
CORNING        FAIR      43  23  45 NE12G18   30.23F
JONESBORO      SUNNY     43  26  51 NE15G22   30.21F
NEWPORT        SUNNY     46  21  37 NE15      30.21F
WALNUT RIDGE   SUNNY     43  21  42 E15G22    30.22S
BLYTHEVILLE    SUNNY     48  24  39 NE15      30.22S
NW BLYTHEVILLE SUNNY     43  25  49 NE14G24   30.21F
$$

ARZ022-023-033-042-044-112200-
CENTRAL ARKANSAS

CITY           SKY/WX    TMP DP  RH WIND       PRES   REMARKS
LITTLE ROCK    MOSUNNY   53  26  35 E12       30.18S
N LITTLE ROCK  MOSUNNY   51  27  38 E12G17    30.18S
JACKSONVILLE   SUNNY     51  24  34 E10       30.16F
SEARCY         SUNNY     48  25  40 E12       30.20F
HOT SPRINGS    SUNNY     56  28  34 NE10      30.13F
RUSSELLVILLE   CLOUDY    55  25  31 VRB7      30.14F
CLINTON        FAIR      50  23  34 CALM      30.17S
$$

ARZ036-112200-
EAST ARKANSAS

CITY           SKY/WX    TMP DP  RH WIND       PRES   REMARKS
WEST MEMPHIS   SUNNY     51  24  34 NE14      30.17R
$$

ARZ050-053-066-070-073-112200-
SOUTHWEST ARKANSAS

CITY           SKY/WX    TMP DP  RH WIND       PRES   REMARKS
ARKADELPHIA    FAIR      59  33  37 E9        30.14S
CAMDEN         SUNNY     66  32  28 NE12      30.11R
TEXARKANA      SUNNY     70  37  29 NE6       30.07R
EL DORADO      SUNNY     72  37  28 E3        30.06F
DE QUEEN       SUNNY     71  40  32 VRB5      30.05F
$$

ARZ056-057-069-112200-
SOUTHEAST ARKANSAS

CITY           SKY/WX    TMP DP  RH WIND       PRES   REMARKS
PINE BLUFF     SUNNY     52  29  41 NE10      30.16S
STUTTGART      SUNNY     50  27  40 N14       30.19R
MONTICELLO     SUNNY     59  34  39 NE13G18   30.12S

$$






USA.gov is the U.S. government's official web portal to all federal, state and local government web resources and services.